TimeCDT,TemperatureF,Dew PointF,Humidity,Sea Level PressureIn,VisibilityMPH,Wind Direction,Wind SpeedMPH,Gust SpeedMPH,PrecipitationIn,Events,Conditions,WindDirDegrees,DateUTC
12:55 AM,24.8,19.4,80,29.98,10.0,NW,5.8,-,N/A,,Clear,310,2013-03-12 05:55:00
1:55 AM,24.1,19.0,81,30.04,10.0,WNW,3.5,-,N/A,,Clear,300,2013-03-12 06:55:00
2:55 AM,19.0,17.1,92,30.05,9.0,West,4.6,-,N/A,,Clear,270,2013-03-12 07:55:00
3:55 AM,21.9,18.0,85,30.05,10.0,SW,4.6,-,N/A,,Clear,220,2013-03-12 08:55:00
4:55 AM,19.9,17.1,89,30.05,10.0,WSW,4.6,-,N/A,,Clear,240,2013-03-12 09:55:00
5:55 AM,21.9,19.0,89,30.06,10.0,Calm,Calm,-,N/A,,Clear,0,2013-03-12 10:55:00
6:55 AM,21.0,18.0,88,30.09,10.0,West,5.8,-,N/A,,Clear,270,2013-03-12 11:55:00
7:55 AM,21.9,19.0,89,30.09,10.0,West,5.8,-,N/A,,Clear,260,2013-03-12 12:55:00
8:55 AM,27.0,21.9,81,30.11,10.0,West,6.9,-,N/A,,Clear,260,2013-03-12 13:55:00
9:55 AM,30.9,24.1,76,30.12,10.0,West,9.2,-,N/A,,Clear,280,2013-03-12 14:55:00
10:55 AM,35.1,25.0,67,30.12,10.0,WSW,10.4,16.1,N/A,,Overcast,250,2013-03-12 15:55:00
11:55 AM,36.0,26.1,67,30.14,10.0,West,16.1,23.0,N/A,,Mostly Cloudy,280,2013-03-12 16:55:00
12:55 PM,36.0,26.1,67,30.14,10.0,West,12.7,23.0,N/A,,Overcast,280,2013-03-12 17:55:00
1:55 PM,37.0,24.1,59,30.14,10.0,WNW,18.4,25.3,N/A,,Overcast,290,2013-03-12 18:55:00
2:55 PM,35.1,23.0,61,30.16,10.0,WNW,23.0,32.2,N/A,,Overcast,290,2013-03-12 19:55:00
3:55 PM,35.1,24.1,64,30.16,10.0,West,15.0,23.0,N/A,,Overcast,280,2013-03-12 20:55:00
4:55 PM,35.1,24.1,64,30.17,9.0,WNW,17.3,28.8,N/A,,Overcast,290,2013-03-12 21:55:00
5:55 PM,32.0,25.0,75,30.20,3.0,WNW,15.0,26.5,0.00,Snow,Light Snow,300,2013-03-12 22:55:00
6:55 PM,30.9,24.1,76,30.22,2.5,NW,19.6,28.8,0.00,Snow,Light Snow,320,2013-03-12 23:55:00
7:02 PM,30.2,24.8,80,30.17,1.0,WNW,15.0,28.8,0.00,Snow,Light Snow,300,2013-03-13 00:02:00
7:08 PM,30.2,24.8,80,30.17,3.0,WNW,15.0,24.2,0.00,Snow,Light Snow,290,2013-03-13 00:08:00
7:31 PM,30.2,24.8,80,30.18,2.5,WNW,12.7,-,0.00,Snow,Light Snow,290,2013-03-13 00:31:00
7:39 PM,30.2,23.0,75,30.18,9.0,WNW,15.0,23.0,0.00,,Overcast,300,2013-03-13 00:39:00
7:55 PM,30.9,21.9,69,30.23,10.0,WNW,16.1,23.0,0.00,,Overcast,290,2013-03-13 00:55:00
8:55 PM,30.0,21.0,69,30.24,10.0,WNW,17.3,24.2,N/A,,Overcast,300,2013-03-13 01:55:00
9:55 PM,28.9,19.9,69,30.25,10.0,WNW,15.0,24.2,N/A,,Mostly Cloudy,300,2013-03-13 02:55:00
10:45 PM,26.6,21.2,80,30.24,2.5,NNW,19.6,33.4,0.00,Snow,Light Snow,330,2013-03-13 03:45:00
10:55 PM,27.0,19.9,75,30.28,5.0,NW,15.0,29.9,0.00,Snow,Light Snow,320,2013-03-13 03:55:00
11:02 PM,26.6,19.4,74,30.24,8.0,NW,18.4,25.3,0.00,Snow,Light Snow,310,2013-03-13 04:02:00
11:55 PM,27.0,19.0,72,30.29,10.0,NW,15.0,24.2,0.00,,Mostly Cloudy,310,2013-03-13 04:55:00